Location: Karlsruhe
(49.0131°N, 8.3874°E)
Time: 16:55:53
(UTC+01:00)

ISS - Pass Details

Date: 30 March 2017
Orbit: 399 x 409 km, 51.6° (Epoch: 25 March)

Event Time Altitude Azimuth Distance (km) Brightness Sun altitude
Rises 20:47:16 0° 227° (SW) 2,303 0.4 -9.3°
Reaches altitude 10° 20:49:23 10° 220° (SW) 1,449 -0.7 -9.6°
Maximum altitude 20:52:28 40° 149° (SSE) 603 -3.3 -10.1°
Enters shadow 20:55:03 14° 81° (E) 1,261 -1.9 -10.5°
